Powrót do katalogu

COSMOS 1156

AktywnyNawigacjaLEO
NORAD 11691·PAYLOAD·🇷🇺 Russia

Wystrzelony Feb 11, 1980 z Plesetsk Cosmodrome

Loading…

Następne Przeloty (najbliższe 24 godziny)

TLE

ŚwieżeSource: Space-Track

Epoka: Sep 14, 2026, 01:46 UTC

1 11691U 80012A   26257.07406759 -.00000025  00000-0 -55160-4 0  9999
2 11691  74.0178 270.6832 0048112 138.7918 250.6291 12.56900578137557

Śledź COSMOS 1156 w czasie rzeczywistym z AllMySat

Download on the App Store